Weather in Hollywood

United States     26°02′29″N   80°11′33″W
temp.,
°C
wind,
m/s
gust,
m/s
humid.,
%
clouds,
%
prec.,
mm/h
press.,
hPa
HPBL,
m
18 september, sat
sat1823:00+28wnw3370100 1.1 1019440
02:00+27wnw2273100 1.1 1017361
05:00+27wnw117367 0.1 1017223
08:00+27nw117190 0.1 1018290
11:00+30nnw115570 0.0 1018916
14:00+33e224562 0.0 10161695
17:00+31ese5354100 0.4 1014896
20:00+30s336095 1.1 1016982
19 september, sun
sun1923:00+28w4471100 3.3 1017398
02:00+27wnw236190 3.7 1016269
05:00+27nw227177 0.1 1015241
08:00+27nw227431 0.1 1016282
11:00+30ne225774 0.0 1017981
14:00+33e434874 0.0 10151685
17:00+31se655471 0.1 1014851
20:00+30sse3358100 0.2 10151071
20 september, mon
mon2023:00+30sw2260100 1.6 1016891
02:00+29wnw226259 1.6 1015702
05:00+29ne016497 0.1 1015537
08:00+29se236316 0.1 1016754
11:00+31ese43545 0.0 10171210
14:00+33ese645142 0.1 10151630
17:00+32ese6453100 0.8 10151291
20:00+29ene3462100 3.3 1016625
21 september, tue
tue2123:00+28e3461100 0.4 1017540
02:00+28ene346582 0.6 1016566
05:00+28e456913 0.0 1015850
08:00+29e456858 0.1 1016927
11:00+31e555878 0.1 10171348
14:00+31e5455100 0.3 10161505
17:00+31e5458100 0.0 10151092
20:00+29e446590 0.1 1016920
22 september, wed
wed2223:00+29ene446963 1.1 1017689
02:00+28e3368100 1.3 1015765
05:00+28ese337082 0.0 1014773
08:00+28ese236972 0.0 1015771
11:00+30ese3259100 0.0 10151181
14:00+32ese435091 0.1 10131728
17:00+30se3258100 2.6 1012913
20:00+29ene4462100 8.6 1012423